Overview Statistics Trail Chart Weather Telemetry Raw packets
 

This is the latest recevied weather packets stored in our database for station/object SQ5JP-4. If no packets are shown the sender has not sent any weather packets the latest 10 day(s).

<< 25 26 27 28 29 30 31 >>
Time Temp. Humidity Pressure Rain* Wind** Luminosity Snow
1787957326 16.11° C 100% 997.5 hPa - - - -
1787956425 16.11° C 100% 997.8 hPa - - - -
1787955525 16.67° C 100% 998.1 hPa - - - -
1787954625 16.67° C 100% 998.3 hPa - - - -
1787953725 17.22° C 100% 998.5 hPa - - - -
1787952825 17.22° C 100% 998.7 hPa - - - -
1787951925 17.22° C 100% 998.7 hPa - - - -
1787951025 17.22° C 100% 998.6 hPa - - - -
1787950124 17.22° C 100% 998.7 hPa - - - -
1787949224 17.22° C 100% 998.8 hPa - - - -
1787948324 16.67° C 100% 998.7 hPa - - - -
1787947424 17.22° C 100% 998.8 hPa - - - -
1787946523 17.78° C 100% 998.9 hPa - - - -
1787945623 18.33° C 100% 999 hPa - - - -
1787943825 18.89° C 100% 998.8 hPa - - - -
1787942925 18.89° C 100% 999.1 hPa - - - -
1787942024 18.89° C 100% 999.5 hPa - - - -
1787941124 18.89° C 100% 999.8 hPa - - - -
1787940224 18.89° C 100% 1000 hPa - - - -
1787939324 18.89° C 100% 999.9 hPa - - - -
1787938424 19.44° C 100% 999.9 hPa - - - -
1787937524 20° C 100% 999.5 hPa - - - -
1787936624 20.56° C 100% 1000 hPa - - - -
1787935724 21.11° C 95% 1000 hPa - - - -
1787934824 22.22° C 81% 999.7 hPa - - - -

* Rain since midnight (hover to see other rain measurements)
** Current wind speed in m/s (hover to see current wind gust speed)